Regional Weather Roundup
Issued by NWS

Home | Current Version | Previous Version | Text Only | Print | Product List | Glossary On
Versions: 1 2 3 4 5 6 7 8 9 10 11 12 13 14 15 16 17 18 19 20 21 22 23 24 25 26 27 28 29 30 31 32 33 34 35 36 37 38 39 40 41 42 43 44 45 46 47 48 49 50
000
ASUS45 KPSR 041010
RWRAZ

ARIZONA HOURLY REGIONAL WEATHER ROUNDUP
NATIONAL WEATHER SERVICE PHOENIX AZ
300 AM MST FRI SEP 04 2015

NOTE: FAIR INDICATES FEW OR NO CLOUDS BELOW 12,000 FEET WITH NO
SIGNIFICANT WEATHER AND/OR OBSTRUCTIONS TO VISIBILITY.

AZZ001>003-036-041100-
NORTHWEST ARIZONA

CITY           SKY/WX    TMP DP  RH WIND       PRES   REMARKS
BULLHEAD CITY  FAIR      86  57  37 S18       29.73S
KINGMAN        FAIR      69  56  62 SE8       29.92S
$$

AZZ004>008-015-016-018-041100-
NORTH CENTRAL ARIZONA

CITY           SKY/WX    TMP DP  RH WIND       PRES   REMARKS
GRAND CANYON   FAIR      56  51  84 CALM      30.14F
WILLIAMS       MOCLDY    55  52  88 SE9       30.19F
PRESCOTT       FAIR      64  56  75 SE6       30.06S
FLAGSTAFF      CLOUDY    56  53  90 SW5       30.18S
PAYSON         FAIR      61  57  88 CALM      30.08F
PAGE           FAIR      72  52  49 S6        29.95F
$$

AZZ009>014-017-041100-
NORTHEAST ARIZONA

CITY           SKY/WX    TMP DP  RH WIND       PRES   REMARKS
WINSLOW        FAIR      60  57  89 CALM      30.04F
SAINT JOHNS    CLOUDY    60  57  89 SE3       30.10S
WINDOW ROCK    CLOUDY    58  48  69 CALM      30.16S
SHOW LOW       MOCLDY    57  52  82 S6        30.15S
$$

AZZ023-041100-
GREATER PHOENIX AREA

CITY           SKY/WX    TMP DP  RH WIND       PRES   REMARKS
PHOENIX        MOCLDY    78  64  61 SE3       29.82F
BUCKEYE        FAIR      72  66  83 E6        29.82S
LUKE AFB       FAIR      78  64  62 NW3       29.82F
DEER VALLEY    FAIR      77  59  53 CALM      29.84F
SCOTTSDALE     FAIR      77  62  59 CALM      29.86S
MESA-GATEWAY   MOCLDY    72  63  73 CALM      29.87S
$$

AZZ027-028-041100-
SOUTHWEST MARICOPA COUNTY AND PINAL COUNTY

CITY           SKY/WX    TMP DP  RH WIND       PRES   REMARKS
CASA GRANDE    FAIR      70  64  83 CALM      29.84S
GILA BEND      FAIR      75  60  59 E3        29.79F
$$

AZZ503-504-507>509-041100-
SOUTHEAST ARIZONA

CITY           SKY/WX    TMP DP  RH WIND       PRES   REMARKS
TUCSON         FAIR      69  64  84 SE9       29.94S
DAVIS-MONTHAN  FAIR      67  64  89 SE5       29.93S
NOGALES        FAIR      62  59  90 E5        30.01S
SIERRA VISTA   CLOUDY    62  58  87 W6        30.05S
DOUGLAS        MOCLDY    62  59  90 CALM      30.02S
SAFFORD        FAIR      69  61  75 E6        29.94F
$$

AZZ020-021-025-026-031-041100-
SOUTHWEST ARIZONA

CITY           SKY/WX    TMP DP  RH WIND       PRES   REMARKS
YUMA           FAIR      85  63  47 E5        29.72S
$$

CAZ031-033-041-043-047-048-061-041100-
SOUTHERN CALIFORNIA

CITY           SKY/WX    TMP DP  RH WIND       PRES   REMARKS
DOWNTOWN L.A.  FAIR      68  58  70 SE3       29.85S
L.A. AIRPORT   CLOUDY    68  58  70 VRB5      29.86S
SAN DIEGO      CLOUDY    70  57  63 VRB3      29.87F
BURBANK        CLOUDY    66  56  70 CALM      29.86S
ONTARIO        CLOUDY    64  57  78 W5        29.88R
RIVERSIDE      FAIR      63  56  78 CALM      29.88R
PALM SPRINGS   FAIR      77  53  43 W5        29.76R
EL CENTRO NAS  FAIR      82  48  30 W5        29.70F
IMPERIAL       FAIR      82  55  39 CALM      29.68F
BLYTHE         FAIR      83  66  56 S7        29.73F
NEEDLES        FAIR      86  60  41 S8        29.76R
$$

NVZ020-UTZ003-041100-
SOUTHERN NEVADA-UTAH

CITY           SKY/WX    TMP DP  RH WIND       PRES   REMARKS
LAS VEGAS      FAIR      82  36  19 S8        29.73S
SALT LAKE CITY FAIR      74  36  25 S14       29.81S
$$

NMZ009-TXZ055-041100-
NEW MEXICO-WEST TEXAS

CITY           SKY/WX    TMP DP  RH WIND       PRES   REMARKS
ALBUQUERQUE    PTCLDY    69  49  48 S3        30.07S
EL PASO        CLOUDY    76  55  48 E3        29.96F
$$


........................KEY........................
SKY/WX - SKY CONDITION/WEATHER
TMP    - TEMPERATURE IN FAHRENHEIT
DP     - DEW POINT IN FAHRENHEIT
RH     - RELATIVE HUMIDITY IN PERCENT
WIND   - DIRECTION AND SPEED IN MILES PER HOUR (MPH)
VRB    - VARIABLE WIND DIRECTION
PRES   - MEAN SEA LEVEL PRESSURE IN INCHES OF MERCURY
         F - FALLING PRESSURE   R - RISING PRESSURE
         S - STEADY PRESSURE
VSB    - VISIBILITY IN MILES
HX     - HEAT INDEX IN FAHRENHEIT
WCI    - WIND CHILL INDEX IN FAHRENHEIT
TC     - TEMPERATURE IN CELSIUS WHICH IS ALSO KNOWN AS
         TEMPERATURE IN CENTIGRADE
AFB    - AIR FORCE BASE
         LUKE AFB IS LUKE AIR FORCE BASE
         DAVIS-MONTHAN IS DAVIS-MONTHAN AIR FORCE BASE
NAS    - NAVAL AIR STATION
         EL CENTRO NAS IS EL CENTRO NAVAL AIR STATION
N/A    - NOT AVAILABLE



USA.gov is the U.S. government's official web portal to all federal, state and local government web resources and services.